This demonstration page uses our WeatherBlox Daily Observations layout. Learn more.

Left ArrowRight Arrow

34.74481, -87.66753

Hourly Observations for March 12, 2018

Temp ( °F °C ) Dew Point ( °F °C ) Humidity (%) Winds ( mph kmh ) Pressure ( in mb ) Visibility ( mi km ) Precip ( " mm )
12:45 am 00:45 Cloudy 40 4.4 34 1.1 79 79 NNW 14 22 30.03 1017 10 16 0.00 0.00
12:53 am 00:53 Cloudy 39 3.9 33 0.6 79 79 NNW 10 17 30.01 1016 10 16 0.00 0.00
1:53 am 01:53 Cloudy 38 3.3 31 -0.6 76 76 NNW 12 19 30.02 1017 10 16 0.00 0.00
2:53 am 02:53 Cloudy 38 3.3 30 -1.1 73 73 NNW 16 26 30.03 1017 10 16 0.00 0.00
3:53 am 03:53 Cloudy 38 3.3 31 -0.6 76 76 N 15 24 30.03 1017 10 16 0.00 0.00
4:53 am 04:53 Cloudy with Light Snow 36 2.2 31 -0.6 82 82 NNW 9 15 30.06 1018 6 10 0.00 0.03
5:53 am 05:53 Cloudy 37 2.8 30 -1.1 76 76 NNW 12 19 30.08 1019 10 16 0.00 0.03
6:53 am 06:53 Cloudy 37 2.8 30 -1.1 76 76 NW 10 17 30.10 1019 10 16 0.00 0.00
7:43 am 07:43 Mostly Sunny 37 2.8 29 -1.7 73 73 NNW 12 19 30.12 1020 10 16 0.00 0.00
7:53 am 07:53 Mostly Sunny 37 2.8 29 -1.7 73 73 NNW 10 17 30.12 1020 10 16 0.00 0.00
8:53 am 08:53 Mostly Sunny 39 3.9 28 -2.2 65 65 N 13 20 30.14 1021 10 16 0.00 0.00
9:53 am 09:53 Mostly Sunny 41 5 29 -1.7 62 62 NNW 10 17 30.15 1021 10 16 0.00 0.00
10:53 am 10:53 Sunny 44 6.7 29 -1.7 55 55 NNW 15 24 30.16 1022 10 16 0.00 0.00
11:53 am 11:53 Sunny 47 8.3 30 -1.1 52 52 N 12 19 30.16 1021 10 16 0.00 0.00
12:53 pm 12:53 Sunny 49 9.4 30 -1.1 48 48 NNW 13 20 30.15 1021 10 16 0.00 0.00
1:53 pm 13:53 Mostly Sunny 51 10.6 32 0 48 48 NW 15 24 30.14 1021 10 16 0.00 0.00
2:53 pm 14:53 Partly Cloudy 52 11.1 31 -0.6 45 45 NNW 17 28 30.13 1020 10 16 0.00 0.00
3:53 pm 15:53 Sunny 53 11.7 31 -0.6 43 43 NW 9 15 30.12 1020 10 16 0.00 0.00
4:53 pm 16:53 Sunny 53 11.7 31 -0.6 43 43 NNW 13 20 30.12 1020 10 16 0.00 0.00
5:53 pm 17:53 Mostly Sunny 52 11.1 30 -1.1 43 43 NW 13 20 30.13 1020 10 16 0.00 0.00
6:53 pm 18:53 Mostly Cloudy 49 9.4 31 -0.6 50 50 NNW 14 22 30.15 1021 10 16 0.00 0.00
7:53 pm 19:53 Clear 46 7.8 31 -0.6 56 56 NW 16 26 30.17 1022 10 16 0.00 0.00
8:53 pm 20:53 Partly Cloudy 44 6.7 31 -0.6 60 60 NNW 13 20 30.19 1022 10 16 0.00 0.00
9:53 pm 21:53 Cloudy 43 6.1 30 -1.1 60 60 NNW 12 19 30.21 1023 10 16 0.00 0.00
10:53 pm 22:53 Clear 41 5 28 -2.2 60 60 N 10 17 30.22 1024 10 16 0.00 0.00
11:53 pm 23:53 Clear 40 4.4 26 -3.3 58 58 N 10 17 30.22 1024 10 16 0.00 0.00

Powered by AerisWeather